Weather in Cordoba

Spain     37˚52′14″N   4˚46′42″W
temp.,
°C
wind,
m/s
gust,
m/s
humid.,
%
clouds,
%
prec.,
mm/h
press.,
hPa
HPBL,
m
2 december, wed
wed201:00+11˚ne11760 0.0 101922
04:00+9˚ne22770 0.0 101822
07:00+8˚ne22700 0.0 101722
10:00+10˚ne22580 0.0 1016121
13:00+15˚ene23410 0.0 1015416
16:00+17˚ene12410 0.0 1013655
19:00+13˚nne225323 0.0 101525
22:00+11˚ene4125277 0.0 1017370
3 december, thu
thu301:00+9˚ne5114941 0.0 1017290
04:00+7˚ene49530 0.0 1016240
07:00+6˚ene49550 0.0 1016219
10:00+8˚ene36510 0.0 1016224
13:00+13˚e02460 0.0 1014437
16:00+15˚wsw475422 0.0 1011864
19:00+11˚wsw237311 0.0 101159
22:00+10˚sw348244 0.0 1010109
4 december, fri
fri401:00+9˚wsw369150 0.0 1010199
04:00+7˚sw498710 0.0 1007259
07:00+9˚wsw6148236 0.0 1005722
10:00+11˚wsw9167696 0.3 10041423
13:00+11˚wnw8126298 0.7 10031361
16:00+10˚wnw9136187 0.2 10021479
19:00+7˚w597393 0.6 10021141
22:00+6˚wsw61076100 0.1 10031018
5 december, sat
sat501:00+5˚wsw497893 0.2 1004643
04:00+4˚sw478093 0.1 1005230
07:00+5˚wsw467484 0.1 1007743
10:00+5˚sw57773 0.0 1010406
13:00+8˚wsw56582 0.0 10101120
16:00+10˚wsw584838 0.1 10091650
19:00+7˚w366226 0.4 1011133
22:00+6˚wsw377033 0.0 1013194
6 december, sun
sun601:00+5˚sw358029 0.0 101495
04:00+3˚sw23890 0.0 101493
07:00+2˚ssw22920 0.0 101542
10:00+4˚sw35810 0.0 1016269
13:00+9˚wsw46631 0.0 1016788
16:00+11˚w485330 0.1 10141566
19:00+9˚wsw376755 0.1 1016210
22:00+7˚sw36816 0.0 1017146